Powrót do katalogu

AAU CUBESAT

AktywnyNaukaSSO
NORAD 27846·PAYLOAD·🇩🇰 Denmark

Wystrzelony Jun 30, 2003 z Plesetsk Cosmodrome

Loading…

Następne Przeloty (najbliższe 24 godziny)

TLE

ŚwieżeSource: Space-Track

Epoka: Sep 14, 2026, 10:54 UTC

1 27846U 03031G   26257.45474373  .00000144  00000-0  81742-4 0  9998
2 27846  98.6881 264.8922 0008038 262.9592  97.0672 14.23998093204393

Śledź AAU CUBESAT w czasie rzeczywistym z AllMySat

Download on the App Store